Location: Brantley
(31.5822°N, 86.2569°W)
Time: 13:58:05
(UTC+00:00)

Courier 1B - Pass Details

Date: 19 February 2026
Orbit: 962 x 1208 km, 28.3° (Epoch: 11 March)

Event Time Altitude Azimuth Distance (km) Brightness Sun altitude
Rises 05:49:55 0° 274° (W) 4,061 - -69.6°
Reaches altitude 10° 05:52:55 10° 267° (W) 3,117 - -69.6°
Maximum altitude 06:00:03 40° 201° (SSW) 1,702 - -69.7°
Drops below altitude 10° 06:07:13 10° 135° (SE) 3,124 - -69.6°
Sets 06:10:14 0° 128° (SE) 4,070 - -69.5°
